Track NAVSTAR 70 (USA 251) now! NAVSTAR 70 (USA 251) is classified as:
1 39741U 14026A 25167.50594248 -.00000062 00000-0 00000-0 0 9994 2 39741 56.6471 345.7395 0034787 320.0654 39.6935 2.00574149 81208